Starlink 3451

operational
NORAD ID: 51749 Int'l Des: 2022-016 Owner: SPXS Country: US Constellation: starlink
LEOCIRCULAR

关于 Starlink 3451

正在加载描述...

实时位置

正在加载3D地球...

即将过境

高度历史

Altitude vs Time

uPlot chart will show altitude changes over time

两行轨道根数

1 51749U 22016AM 25340.53701275 -.00000775 00000-0 -30586-4 0 9998
2 51749 53.2195 17.4815 0001222 97.0636 263.0495 15.08841358209493
Epoch: Dec 6, 2025 • Age: 16 hours

当前状态

高度 539.9 km
速度 7.60 km/s
星下点 17.61°N, 121.33°W
发射日期 Feb 21, 2022
运行时间 3.7 years
类型 internet

技术详情

分类 Payload
质量 297.00 kg
干质量 275.00 kg
总质量 297.00 kg
长度 0.20 m
直径 2.80 m
跨度 9.00 m
形状 Box + pan
制造商 SPXS
平台类型 Starlink
阶段状态 In Orbit
所有者/国家 SPXS/US

大型星座

Loading constellations...